Regional Weather Roundup
Issued by NWS

Home | Current Version | Previous Version | Graphics & Text | Print | Product List | Glossary On
Versions: 1 2 3 4 5 6 7 8 9 10 11 12 13 14 15 16 17 18 19 20 21 22 23 24 25 26 27 28 29 30 31 32 33 34 35 36 37 38 39 40 41 42 43 44 45 46 47 48 49 50
000
ASUS43 KMKX 010911
RWRWI

WISCONSIN REGIONAL WEATHER ROUNDUP
NATIONAL WEATHER SERVICE MILWAUKEE/SULLIVAN WI
400 AM CDT TUE SEP 01 2015

NOTE: "FAIR" INDICATES FEW OR NO CLOUDS BELOW 12,000 FEET WITH NO
SIGNIFICANT WEATHER AND/OR OBSTRUCTIONS TO VISIBILITY.

WIZ001-002-006>008-014>016-023>028-011000-
NORTHWEST WISCONSIN

CITY           SKY/WX    TMP DP  RH WIND       PRES   REMARKS
SUPERIOR ARPT  CLOUDY    71  70  96 CALM      29.87R
ASHLAND        PTCLDY    71  71 100 S6        29.90S
HAYWARD        PTCLDY    70  68  93 S5        29.93S FOG
SIREN          MOCLDY    71  69  95 CALM      29.91S FOG
CUMBERLAND     FOG       64  64 100 S5        29.94S VSB 1/2
RICE LAKE      FOG       68  67  96 CALM      29.95S VSB 1/2
CHETEK         FOG      N/A N/A N/A CALM      29.95R VSB 3/4
LADYSMITH      PTCLDY    69  68  96 S6        29.97S FOG
EAU CLAIRE     PTCLDY    70  68  93 S3        29.94R
MENOMONIE      FOG       67  67  98 CALM      29.93S VSB<1/4
NEW RICHMOND   PTCLDY    69  68  98 S5        29.93S FOG
OSCEOLA        PTCLDY    70  70 100 SE3       29.94S FOG
$$

WIZ003>005-009-010-017-018-011000-
NORTH CENTRAL WISCONSIN

CITY           SKY/WX    TMP DP  RH WIND       PRES   REMARKS
MANITOWISH WTR CLOUDY    68  68 100 S3        29.97F FOG
ARBOR VITAE    PTCLDY    67  66  95 S6        29.98S FOG
WOODRUFF       PTCLDY    67  66  95 S6        29.98S FOG
RHINELANDER    PTCLDY    69  67  93 SW6       30.00S FOG
EAGLE RIVER    CLEAR     67  67 100 SW3       29.99S FOG
LAND O LAKES   CLOUDY    67  67  98 CALM      30.00S FOG
PHILLIPS       MOCLDY    67  67 100 CALM      29.96F FOG
TOMAHAWK       CLEAR     65  64  96 CALM      29.99S FOG
MEDFORD        MOCLDY    67  67 100 S5        29.98S FOG
MERRILL          N/A     61  61 100 CALM      29.99S FOG
$$

WIZ029-030-035-036-043>047-011000-
CENTRAL WISCONSIN

CITY           SKY/WX    TMP DP  RH WIND       PRES   REMARKS
WAUSAU         PTCLDY    67  66  97 S5        29.98S FOG
MOSINEE        MOCLDY    64  64 100 CALM      30.00S FOG
MARSHFIELD     MOCLDY    67  64  90 S5        29.98S FOG
STEVENS POINT  CLOUDY    63  62  96 CALM      29.99F
WAUPACA        CLEAR     64  64  97 CALM      29.99S FOG
WAUTOMA        FOG       62  62 100 CALM      29.99F VSB 1/4
WISC RAPIDS    MOCLDY    68  65  90 CALM      29.99S
CAMP DOUGLAS   CLEAR     68  68 100 S6        29.97S
$$

WIZ011>013-019>022-031-037>040-048>050-011000-
NORTHEAST WISCONSIN

CITY           SKY/WX    TMP DP  RH WIND       PRES   REMARKS
ANTIGO         CLEAR     65  65  99 SW6       30.01S FOG
SHAWANO          N/A     68  66  94 CALM      29.99S FOG
OCONTO         CLOUDY    62  62 100 CALM      29.99S VSB 1/4
STURGEON BAY   CLEAR     66  63  88 SW5       30.02S
GREEN BAY      CLEAR     65  64  97 S3        30.00S FOG
MANITOWOC      PTCLDY    54  53  97 MISG      30.02S FOG
APPLETON       CLEAR     64  64 100 SE3       29.99S FOG
CLINTONVILLE   FOG       63  63 100 CALM      29.99S VSB 1/4
OSHKOSH        CLEAR     67  65  93 S8        29.99F FOG
$$

WIZ032>034-041-042-053>061-011000-
SOUTHWEST WISCONSIN

CITY           SKY/WX    TMP DP  RH WIND       PRES   REMARKS
LA CROSSE      CLEAR     70  69  97 SE3       29.94S FOG
SPARTA         CLEAR     65  64  96 CALM      29.97S
VIROQUA          N/A     69  69 100 S3        29.98F
BOSCOBEL       FOG       67  66  97 CALM      29.97S VSB 3/4
PRAIRIE DU CHI CLEAR     70  68  92 CALM      29.96S FOG
PLATTEVILLE    CLEAR     70  70  99 SE6       29.99F
$$

WIZ056-057-062-063-064-067-068-011000-
SOUTH CENTRAL WISCONSIN

CITY           SKY/WX    TMP DP  RH WIND       PRES   REMARKS
REEDSBURG      CLEAR     71  69  92 CALM      29.98S
BARABOO/DELLS  CLEAR     71  67  87 S6        29.98F
LONE ROCK      CLEAR     69  67  93 CALM      29.98S FOG
MINERAL POINT  CLEAR     72  70  94 SE6       30.01S FOG
MADISON        CLEAR     70  67  90 S3        29.99F
MIDDLETON      PTCLDY    72  70  94 CALM      30.00F
WATERTOWN      CLEAR     67  67 100 CALM      30.01S FOG
MONROE         PTCLDY    70  68  94 S9        30.00F FOG
JANESVILLE     CLEAR     68  66  94 SE3       30.01S FOG
$$

WIZ051-052-058>065-066-070>072-011000-
SOUTHEAST WISCONSIN

CITY           SKY/WX    TMP DP  RH WIND       PRES   REMARKS
MILWAUKEE      CLEAR     66  64  93 SE3       30.02S FOG
WAUKESHA       CLEAR     64  64 100 CALM      30.03F FOG
MILWAUKEE/TIMM CLEAR     64  61  88 CALM      30.03S FOG
RACINE         CLEAR     67  65  93 SW3       30.04S FOG
BURLINGTON     FOG       59  59  99 CALM      30.02F VSB 1/2
KENOSHA        CLEAR     66  64  93 SW3       30.03S
FOND DU LAC    CLEAR     67  65  93 S6        30.01S FOG
SHEBOYGAN      FOG       62  60  93 S3        30.02S VSB 3/4
WEST BEND      FOG       63  61  94 CALM      30.03S VSB 1/4
JUNEAU           N/A     65  65  99 SE3       30.02F FOG
$$

LSZ147-162-011000-
LAKE SUPERIOR

STATION/POSITION TIME  TEMP    WIND        PRES    WAVE
                       AIR SEA DIR/SP/G            HT/PER
                 (UTC) (F)     (DEG/KT/KT) (MB)    (FT/S)
W MID LAKE BUOY  0850   62 54  210/ 12/ 14 1011.4R   1/ 3
DEVILS ISLAND    0900   69     200/  5/  6 1011.4S
PORT WING        0840   74     190/  8/ 11 1011.5F
SAXON HARBOR     0800   74     200/  5/ 10 1011.9S
$$

LMZ867-665-643>646-011000-
LAKE MICHIGAN

STATION/POSITION TIME  TEMP    WIND        PRES    WAVE
                       AIR SEA DIR/SP/G            HT/PER
                 (UTC) (F)     (DEG/KT/KT) (MB)    (FT/S)
CHAMBERS ISLAND  0800   67     170/  4/  8 1015.6S
S GREEN BAY BUOY 0900   66 64  180/  6/  6 1016.9F
N MID LAKE BUOY  0850   64 65  210/ 16/ 17 1015.5R   3/ 4
NORTHPORT PIER   0800   65     170/  4/  7 1015.6S
KEWAUNEE LAKESHO 0800   50     150/  4/  5 1015.2
SHEBOYGAN LAKESH 0900   65     180/  5/  6 1016.5S
PORT WASHINGTON  0800   57      CALM  /  2 1016.9F
ATWATER BUOY     0900   57 50  170/  4/  4 1017.8F
MILWAUKEE LAKESH 0810   60     160/  3/  3   N/A
S MID LAKE BUOY  0850   71 69  180/  8/  8 1016.7R
KENOSHA   LAKESH 0900   64     180/  4/  6 1016.6S
$$

TC  - TEMPERATURE IN CELSIUS
VSB - VISIBILITY IN STATUTE MILES
WCI - WIND CHILL INDEX
HX  - HEAT INDEX



USA.gov is the U.S. government's official web portal to all federal, state and local government web resources and services.